TimePDT,TemperatureF,Dew PointF,Humidity,Sea Level PressureIn,VisibilityMPH,Wind Direction,Wind SpeedMPH,Gust SpeedMPH,PrecipitationIn,Events,Conditions,WindDirDegrees,DateUTC
12:00 AM,45.1,36.9,73,29.97,-9999.0,ENE,6.9,-,N/A,,Unknown,60,2014-03-31 07:00:00
1:00 AM,45.0,36.9,73,29.97,-9999.0,ENE,6.9,-,N/A,,Unknown,60,2014-03-31 08:00:00
2:00 AM,43.9,37.4,78,29.95,-9999.0,East,5.8,-,N/A,,Unknown,90,2014-03-31 09:00:00
3:00 AM,42.3,37.9,85,29.95,-9999.0,East,5.8,-,N/A,,Unknown,100,2014-03-31 10:00:00
4:00 AM,43.0,38.7,85,29.94,-9999.0,East,5.8,-,N/A,,Unknown,90,2014-03-31 11:00:00
5:00 AM,44,39,76,29.93,,East,8.1,,,,,100,2014-03-31 12:00:00
5:00 AM,44.1,39.0,82,29.93,-9999.0,East,8.1,-,N/A,,Unknown,100,2014-03-31 12:00:00
6:00 AM,44.6,38.7,80,29.90,-9999.0,East,5.8,-,N/A,,Unknown,90,2014-03-31 13:00:00
7:00 AM,43.9,37.9,80,29.89,-9999.0,East,8.1,-,N/A,,Unknown,100,2014-03-31 14:00:00
8:00 AM,45.1,38.1,76,29.88,-9999.0,East,8.1,-,N/A,,Unknown,90,2014-03-31 15:00:00
9:00 AM,46.6,37.9,72,29.88,-9999.0,East,8.1,-,N/A,,Unknown,90,2014-03-31 16:00:00
10:00 AM,47.7,34.7,61,29.88,-9999.0,ESE,17.3,-,N/A,,Unknown,110,2014-03-31 17:00:00
11:00 AM,50,35,46,29.86,,East,13.8,,,,,90,2014-03-31 18:00:00
11:00 AM,49.6,35.4,58,29.86,-9999.0,East,13.8,21.9,N/A,,Unknown,90,2014-03-31 18:00:00
12:00 PM,50.5,35.2,56,29.84,-9999.0,East,21.9,27.6,N/A,,Unknown,100,2014-03-31 19:00:00
1:00 PM,53.1,33.1,47,29.82,-9999.0,East,16.1,21.9,N/A,,Unknown,100,2014-03-31 20:00:00
2:00 PM,54.1,31.3,42,29.81,-9999.0,East,11.5,20.7,N/A,,Unknown,100,2014-03-31 21:00:00
3:00 PM,47.5,40.6,77,29.80,-9999.0,SE,19.6,-,0.01,,Unknown,130,2014-03-31 22:00:00
4:00 PM,48.4,41.5,77,29.79,-9999.0,East,11.5,-,N/A,,Unknown,100,2014-03-31 23:00:00
5:00 PM,49,42,69,29.78,,East,11.5,,,,,90,2014-04-01 00:00:00
5:00 PM,49.3,41.9,76,29.78,-9999.0,East,11.5,-,N/A,,Unknown,90,2014-04-01 00:00:00
6:00 PM,51.1,42.3,72,29.76,-9999.0,East,5.8,-,N/A,,Unknown,80,2014-04-01 01:00:00
7:00 PM,49.6,41.4,73,29.75,-9999.0,East,5.8,-,N/A,,Unknown,90,2014-04-01 02:00:00
8:00 PM,49.5,39.0,67,29.75,-9999.0,East,6.9,-,N/A,,Unknown,80,2014-04-01 03:00:00
9:00 PM,49.5,38.5,66,29.75,-9999.0,East,5.8,-,N/A,,Unknown,90,2014-04-01 04:00:00
10:00 PM,47.3,38.8,72,29.75,-9999.0,East,5.8,-,N/A,,Unknown,80,2014-04-01 05:00:00
11:00 PM,49,38,57,29.75,,East,5.8,,,,,100,2014-04-01 06:00:00
11:00 PM,48.7,38.3,67,29.75,-9999.0,East,5.8,-,N/A,,Unknown,100,2014-04-01 06:00:00